Location: *
(51.1248°S, 108.4023°W)
Time: 11:37:57
(UTC+00:00)

Tiangong - Pass Details

Date: 27 September 2021
Orbit: 382 x 385 km, 41.5° (Epoch: 18 October)

Event Time Altitude Azimuth Distance (km) Brightness Sun altitude
Rises 02:23:00 0° 296° (WNW) 2,285 5.8 -10.8°
Maximum altitude 02:27:38 15° 358° (N) 1,161 3.3 -11.5°
Enters shadow 02:29:07 12° 28° (NNE) 1,320 3.4 -11.7°
